Theta_e
308 309 309 309 309 308 307 306 306 308 309 310 312 312 310 309 314 314 316 311 315 308 317 318 314 315 316 317 318 322 324 325 324 323 324 325 326 327 326 324 324 324 325 326 328
307 307 307 307 307 307 308 308 306 306 305 306 307 307 309 308 316 317 310 309 309 309 320 317 317 318 318 315 317 318 323 323 324 325 325 325 324 325 324 323 322 323 324 324 325
299 302 301 300 301 303 303 305 307 306 305 307 307 308 308 311 318 318 309 309 309 311 316 314 316 317 319 318 317 317 320 321 322 322 323 324 325 324 323 324 324 324 324 324 325
298 297 297 298 299 302 303 304 305 306 306 307 307 308 308 316 319 316 310 309 309 312 313 315 317 317 318 318 318 317 318 318 319 320 320 321 323 324 324 324 323 323 324 325 324
299 297 297 298 299 301 302 303 305 306 306 307 308 308 314 319 317 312 310 315 315 313 314 316 316 317 317 316 317 318 318 318 318 318 318 319 320 321 323 324 324 324 323 324 325
299 297 297 298 300 302 302 303 305 306 307 307 308 308 318 318 313 313 313 313 313 314 314 315 316 316 316 316 316 316 316 317 317 318 319 318 318 318 319 320 321 323 324 324 324
299 297 299 302 304 304 302 303 306 307 307 307 308 312 315 315 313 314 315 314 314 313 314 314 314 316 317 317 318 317 317 316 316 316 316 317 319 319 319 320 320 320 323 324 325
298 297 300 305 306 304 302 304 306 307 307 308 307 313 315 313 311 312 314 314 315 314 314 313 313 315 316 316 317 318 318 319 317 317 317 317 316 317 319 320 320 320 320 322 324
299 297 299 304 305 302 304 306 307 307 308 308 314 316 316 312 312 312 312 312 312 311 313 314 314 315 315 316 317 317 317 317 318 318 318 318 317 317 319 320 321 322 321 320 321
302 298 298 305 303 304 307 309 311 310 314 314 314 315 315 313 312 311 311 312 313 313 314 314 315 316 315 315 314 313 313 315 316 316 316 316 317 318 319 320 321 321 321 321 320
302 300 301 305 304 306 309 312 315 319 314 311 312 312 312 311 311 311 311 312 313 314 315 314 314 314 314 314 314 314 315 315 315 316 316 316 316 316 317 320 320 322 322 322 322
302 300 303 304 305 308 310 312 310 309 311 312 312 312 311 311 312 313 311 312 313 314 314 315 315 314 314 313 313 313 314 315 316 316 316 316 316 316 316 318 321 321 322 323 323
299 300 303 304 307 311 311 310 310 310 312 313 312 313 313 312 312 312 312 312 313 314 315 316 315 314 315 315 315 315 315 316 316 317 316 316 316 315 315 316 319 321 322 323 324
298 300 304 306 307 311 312 310 310 310 317 316 314 313 312 312 311 311 311 312 314 315 315 315 314 314 316 316 316 318 316 317 317 316 316 316 316 315 315 316 317 319 321 322 323
299 300 305 306 311 312 309 309 309 313 324 312 312 311 311 310 310 312 312 314 315 315 316 316 315 314 315 316 317 321 318 317 317 318 317 315 315 315 315 315 316 319 319 321 322
300 302 306 311 312 308 307 308 312 321 321 312 311 311 310 310 310 313 314 315 315 316 316 316 316 315 315 315 317 316 317 317 317 317 318 317 316 315 315 315 316 318 319 320 320
301 303 306 309 308 306 309 313 317 319 313 312 312 310 309 310 312 315 315 316 317 319 319 317 316 316 316 316 316 318 319 324 323 322 323 317 317 319 318 315 316 316 318 319 321
303 306 311 310 305 307 311 315 317 314 313 312 310 308 311 312 312 314 316 317 316 316 319 319 318 318 317 316 319 320 320 324 322 317 315 314 318 320 316 317 316 317 319 320 321
305 310 312 306 305 307 314 315 313 312 310 308 308 310 311 311 312 315 316 316 315 316 321 319 316 315 314 314 314 315 316 315 317 321 323 317 317 319 318 316 315 315 318 319 321
306 310 312 304 306 310 312 312 309 307 307 309 310 310 310 310 314 315 315 316 316 314 314 316 320 315 314 313 314 314 315 321 322 325 322 319 319 323 321 319 318 317 316 319 320
309 313 310 304 308 311 312 309 308 307 308 309 310 310 310 312 313 315 315 315 315 314 315 316 318 317 316 316 316 316 317 317 318 321 325 322 323 322 321 320 321 318 317 319 321
310 312 308 306 310 310 310 308 306 308 309 309 309 310 312 314 314 314 315 315 314 313 318 314 319 321 317 315 316 316 316 319 328 321 321 324 327 319 321 322 321 319 318 317 320
311 310 308 307 310 310 310 310 308 309 310 309 309 311 312 312 317 314 314 313 312 312 314 315 317 321 321 319 321 319 318 318 320 321 322 323 319 318 319 322 322 322 322 320 318
310 311 309 308 308 309 311 312 311 311 310 310 311 312 312 315 313 315 314 313 312 313 313 313 314 316 320 319 318 320 320 318 320 322 320 320 319 319 319 321 321 321 322 323 319
309 309 309 308 309 310 311 310 311 313 311 312 314 313 315 316 314 315 314 313 312 312 312 313 318 317 317 318 319 320 320 319 323 322 324 320 319 318 317 320 320 320 320 320 322
309 308 306 307 309 310 308 310 312 312 312 314 313 313 313 313 315 315 314 313 314 312 313 312 316 318 318 316 317 320 321 321 317 318 321 318 319 317 319 320 319 319 319 319 319
306 305 306 310 310 309 309 309 310 312 313 312 312 313 314 314 312 312 312 313 314 313 313 311 315 319 317 315 317 321 315 314 314 314 316 317 316 316 314 317 321 322 320 318 318
Wind_Speed
23 21 20 18 16 16 16 17 19 17 15 14 14 14 13 13 7 9 3 4 2 6 6 8 9 13 14 17 20 16 16 21 26 29 24 22 25 16 12 17 17 15 19 15 4
24 24 23 20 18 16 16 17 19 18 14 11 11 12 11 8 12 7 3 1 3 7 7 7 8 10 13 14 17 20 17 29 24 23 21 21 25 18 20 15 14 17 17 17 12
28 26 25 23 20 17 17 17 17 18 15 12 12 10 8 5 12 7 3 4 6 6 11 10 11 11 16 18 18 23 26 25 26 22 24 25 25 22 19 24 20 18 16 16 15
29 28 27 27 24 19 17 17 17 19 16 12 13 13 9 7 3 8 4 4 6 6 7 8 7 13 16 18 20 23 28 27 25 24 25 28 21 25 24 23 21 21 20 17 18
31 28 29 29 26 22 18 17 17 18 15 9 12 12 6 8 2 3 5 5 7 6 6 7 9 10 15 14 15 22 22 24 24 25 25 23 27 25 26 23 22 21 25 17 16
33 33 34 31 26 22 18 16 16 18 14 8 9 11 9 15 4 0 4 6 8 8 10 7 8 11 12 16 17 19 21 19 20 21 22 27 26 25 31 26 25 25 24 23 24
36 36 35 32 28 23 16 14 15 18 10 8 9 7 12 12 1 3 4 5 4 8 10 10 9 11 14 17 14 14 20 21 22 20 25 24 30 33 29 30 28 25 26 24 25
38 39 36 31 28 21 12 12 15 9 7 7 8 8 10 5 4 8 4 8 5 6 10 11 12 15 17 16 21 21 22 21 20 23 23 24 33 30 27 30 31 30 24 25 28
40 42 38 31 26 12 8 12 11 7 6 7 6 10 11 5 7 6 7 8 11 14 10 10 14 16 16 18 18 20 21 26 25 20 14 23 29 25 22 25 29 27 29 27 26
41 43 38 29 17 7 8 11 7 3 3 7 10 7 9 6 3 7 9 8 12 11 15 17 15 15 16 16 18 23 24 24 20 17 18 18 23 23 23 26 24 30 27 26 29
41 43 35 24 11 8 13 5 4 7 11 15 16 17 17 12 7 13 15 8 15 11 15 15 16 18 24 23 24 23 26 26 26 26 26 20 23 24 23 25 26 24 21 23 23
43 41 30 17 5 7 10 11 10 10 13 17 11 12 12 10 8 12 10 11 13 17 19 17 20 24 24 27 27 26 28 27 28 27 23 22 24 23 23 27 27 24 20 23 20
46 39 23 10 5 7 7 10 13 12 8 1 1 5 3 8 12 14 3 11 18 19 18 21 23 23 22 22 23 23 25 28 28 26 22 22 25 26 24 28 31 27 25 25 23
48 37 17 9 7 10 3 15 15 8 6 9 7 4 6 5 15 3 13 8 16 21 21 22 20 16 18 20 18 22 27 21 25 19 17 19 19 23 22 23 30 32 28 27 25
50 31 12 7 12 11 14 16 13 8 6 4 5 4 5 12 16 2 4 11 17 20 18 22 22 23 20 19 20 17 24 18 21 21 20 26 17 20 23 27 27 31 32 30 27
50 20 9 3 8 16 19 15 8 6 2 1 3 4 16 16 17 7 12 12 17 18 18 23 19 17 20 17 19 16 15 20 18 17 18 27 21 23 20 23 26 28 32 33 31
42 10 6 7 13 21 15 11 7 5 4 5 14 17 22 21 11 7 13 14 8 11 14 18 22 19 18 16 19 12 14 9 13 13 15 22 15 15 26 21 25 28 27 31 32
30 8 7 6 22 14 14 11 9 9 15 20 18 24 22 8 10 13 15 14 9 7 12 12 14 4 6 9 14 9 11 7 16 16 20 23 12 16 15 18 23 19 29 25 23
28 6 5 16 16 12 9 5 11 13 17 18 21 14 10 11 15 14 15 15 5 4 4 10 7 10 17 15 15 19 19 21 20 19 18 20 25 25 20 18 18 17 22 21 23
20 8 3 19 13 11 7 6 10 15 15 13 17 10 17 19 15 13 12 6 7 5 7 8 16 15 17 6 14 18 18 15 7 7 17 17 12 7 16 13 16 16 22 22 18
9 5 9 19 11 4 4 7 11 13 10 9 15 17 15 17 13 14 9 15 7 10 12 15 10 15 18 17 19 16 15 16 12 11 13 18 8 6 9 19 16 17 21 20 16
9 5 12 20 6 6 8 8 7 10 11 11 8 12 11 11 14 17 15 6 10 10 13 15 5 14 24 25 24 20 21 17 9 10 11 11 12 7 6 25 23 3 14 22 22
8 6 4 16 6 8 8 9 5 10 11 8 9 11 13 16 7 13 16 7 12 5 5 6 5 10 11 7 9 4 9 11 15 14 20 14 15 7 7 13 23 9 14 12 23
6 5 5 6 4 9 11 9 12 8 9 7 13 14 11 13 14 13 22 7 6 20 21 13 6 13 16 21 21 20 18 14 15 7 14 20 25 23 20 6 23 12 12 20 9
5 5 3 7 9 12 11 11 13 11 5 12 7 11 15 5 17 20 16 23 11 19 3 3 7 16 23 27 27 28 28 21 16 13 13 22 24 24 16 15 18 14 7 9 18
6 5 6 12 9 11 5 11 12 12 9 11 15 21 19 16 16 24 20 18 7 9 2 4 5 15 24 23 25 21 18 4 0 10 12 16 22 17 19 22 18 20 20 10 10
8 3 4 11 8 9 6 10 15 15 8 10 14 17 22 21 20 24 23 24 18 9 5 3 4 4 17 14 22 14 5 5 4 10 13 17 16 15 17 18 17 18 20 18 15
Wind_Direction
3 2 358 353 351 348 346 349 349 343 336 330 317 308 313 313 323 253 42 44 285 301 320 269 247 236 232 239 240 230 246 250 251 255 263 266 265 283 274 254 256 265 253 255 136
2 359 358 353 348 345 343 340 346 345 346 347 343 337 325 332 296 106 80 14 339 331 303 303 262 218 237 235 236 230 240 243 255 270 267 272 263 246 247 254 248 258 248 244 208
4 359 357 355 348 341 341 341 340 341 341 343 344 342 335 326 267 82 68 331 335 340 289 290 278 262 247 242 230 239 244 262 271 264 264 272 279 274 247 251 258 257 234 234 232
5 0 355 348 344 336 331 334 337 344 338 341 349 348 338 277 337 96 325 304 304 316 284 266 254 253 255 250 240 249 254 258 266 272 283 275 272 266 271 266 263 274 263 250 214
3 359 351 344 337 332 324 325 328 335 330 321 342 340 320 248 59 126 297 260 284 268 277 278 284 280 264 274 274 257 258 263 268 268 267 272 266 269 266 259 267 270 270 253 254
2 356 349 343 335 327 317 316 322 326 321 305 331 331 269 279 61 340 275 262 260 259 284 263 284 324 300 272 268 281 284 283 282 274 261 255 255 255 254 260 264 267 259 258 258
1 356 349 338 333 325 313 311 314 319 306 288 309 316 280 275 349 281 263 298 302 279 284 291 304 282 298 294 270 278 277 267 262 260 259 257 257 249 258 262 262 246 245 253 256
1 355 348 337 331 328 319 310 314 309 290 280 304 281 263 155 285 260 264 273 234 263 269 278 280 272 270 275 277 268 262 266 264 252 242 231 254 251 248 251 251 247 247 235 239
360 355 351 341 336 336 321 312 311 295 282 271 279 222 265 110 235 321 274 292 300 289 243 261 265 269 269 260 263 255 255 259 260 258 264 277 258 250 259 255 257 250 232 233 240
358 353 352 347 346 343 322 316 280 272 256 252 257 250 239 243 33 307 264 267 283 285 273 242 244 262 255 249 255 266 270 285 284 296 292 262 268 276 267 266 256 240 254 232 224
358 352 351 347 355 354 333 241 281 194 227 290 289 279 296 274 286 258 270 260 273 259 263 270 274 264 264 263 271 276 277 275 279 278 280 270 274 278 276 258 245 263 239 235 234
358 352 350 348 12 348 317 25 24 312 300 284 272 270 269 287 270 266 297 264 269 285 290 280 264 261 264 270 271 271 271 274 274 273 270 270 270 268 277 271 264 248 245 254 251
357 351 346 342 326 311 352 8 332 318 276 320 271 271 185 218 266 280 255 275 282 281 279 277 285 295 281 264 271 259 261 264 270 279 282 282 273 267 256 257 263 250 249 249 246
356 351 346 346 276 339 6 339 330 330 273 134 176 143 205 264 275 359 259 297 284 282 285 278 285 282 291 276 267 264 268 275 273 264 264 269 277 271 275 248 246 249 240 238 236
354 351 357 1 319 344 329 323 327 254 291 91 120 48 256 279 307 247 187 259 281 290 291 284 299 287 261 267 266 278 278 270 289 278 275 267 267 272 277 273 245 236 239 237 238
353 351 357 349 272 344 321 314 276 237 278 119 303 287 304 316 299 286 273 292 275 271 265 270 275 272 268 266 274 286 281 286 272 262 257 262 261 262 271 271 264 250 226 233 237
354 351 4 327 336 325 322 277 265 277 63 3 339 324 317 299 309 329 314 299 305 313 298 316 286 261 239 248 254 293 262 272 262 252 252 267 294 279 282 282 270 253 244 224 225
353 337 317 319 333 328 306 275 276 327 353 342 326 314 290 3 326 316 313 309 333 305 289 290 301 6 329 247 265 247 260 248 282 288 294 300 266 268 299 257 260 270 294 229 210
354 350 292 344 336 323 287 307 1 352 341 328 313 309 339 339 340 328 322 299 9 315 286 314 279 329 291 273 261 270 259 261 275 285 274 280 272 284 318 273 252 233 258 274 210
337 320 16 344 331 284 293 319 340 350 341 318 309 324 327 324 326 334 314 332 332 311 278 291 292 283 280 297 266 254 268 279 270 277 271 276 294 287 300 282 265 271 234 256 213
304 299 17 341 305 314 1 333 334 344 338 329 322 311 311 314 319 313 271 303 26 347 310 292 260 273 289 271 268 264 238 242 269 261 276 290 307 274 327 304 252 249 229 233 242
308 317 7 340 307 2 8 342 318 325 317 305 294 291 313 317 304 291 268 278 333 350 312 299 284 282 279 281 272 263 272 243 247 251 256 283 278 232 356 295 267 307 266 215 233
321 293 70 352 13 360 346 315 306 320 325 302 289 291 307 305 304 276 290 310 322 314 281 2 269 293 305 263 30 306 294 327 328 301 266 269 267 252 202 2 320 42 324 253 226
314 328 356 303 146 346 343 328 326 353 324 310 297 300 310 298 286 277 290 321 321 298 276 268 240 243 263 276 296 282 264 248 259 261 275 261 274 275 284 10 290 323 330 324 284
350 12 35 305 336 330 308 301 328 342 326 305 304 318 326 273 303 279 309 311 311 297 202 239 256 252 256 264 272 273 273 271 254 248 257 278 274 272 269 217 269 301 267 273 310
330 345 328 294 296 298 262 343 326 331 329 300 313 312 314 302 283 295 301 296 264 291 180 241 269 285 286 283 281 284 300 245 163 316 273 290 285 288 312 297 277 276 272 257 245
359 268 292 292 297 298 356 326 312 309 317 289 312 305 303 308 307 289 278 271 253 247 267 257 273 291 292 306 309 283 43 21 296 262 265 281 285 305 305 302 278 268 243 252 245